Tracking 28790 objects as of 19-Apr-2024
HD Live streaming from Space Station
objects crossing your sky now

STARLINK-3858

Track STARLINK-3858 now!
10-day predictions
STARLINK-3858 is classified as:


NORAD ID: 52553
Int'l Code: 2022-051W
Perigee: 545.6 km
Apogee: 548.2 km
Inclination: 53.2 °
Period: 95.4 minutes
Semi major axis: 6917 km
RCS: Unknown
Launch date: May 13, 2022
Source: United States (US)
Launch site: AIR FORCE WESTERN TEST RANGE (AFWTR)
Your satellite tracking list
Your tracking list is empty




NASA's NSSDC Master Catalog

Two Line Element Set (TLE):
1 52553U 22051W   24109.87858424  .00005075  00000-0  33668-3 0  9998
2 52553  53.2185 345.4566 0001870  95.6774 264.4432 15.08842924107380
Source of the keplerian elements: AFSPC